Miscellaneous Local Product
Issued by NWS North Platte, NE

Home | Current Version | Previous Version | Graphics & Text | Print | Product List | Glossary On
Versions: 1 2 3 4 5 6 7 8 9 10 11 12 13 14 15 16 17 18 19 20 21 22 23 24 25 26 27 28 29 30 31 32 33 34 35 36 37 38 39 40 41 42 43 44 45 46 47 48 49 50
000
AXUS43 KLBF 211410
MISLBF


WESTERN AND NORTH CENTRAL NEBRASKA HOURLY WEATHER ROUNDUP
NATIONAL WEATHER SERVICE NORTH PLATTE NE
800 AM CST TUE FEB 21 2017

NOTE: "FAIR" INDICATES FEW OR NO CLOUDS BELOW 12,000 FEET WITH NO
SIGNIFICANT WEATHER AND/OR OBSTRUCTIONS TO VISIBILITY.

NOTE: STATIONS NOT REPORTING VARIABLES SUCH AS SKY/WEATHER OR
PRESSURE ARE PROVIDED BY RAWS AND APRS NETWORKS AND ARE NOT UNDER
NATIONAL WEATHER SERVICE QUALITY CONTROL.

...OBSERVATIONS IN AND NEAR THE EASTERN PANHANDLE OF NEBRASKA...

CITY           SKY/WX    TMP DP  RH WIND       PRES   REMARKS
PINE RIDGE     CLEAR     34  27  75 NW5       29.84F WCI  30
CHADRON        CLEAR     34  27  75 W8        29.85F WCI  27
ALLIANCE       CLEAR     30  22  72 CALM      29.91R
SIDNEY         CLOUDY    44  25  47 W13       29.97F
CRESCENT LAKE    N/A     41  22  47 SW6         N/A
$$

...OBSERVATIONS IN NORTHERN NEBRASKA AND FAR SOUTHERN SOUTH DAKOTA...

CITY           SKY/WX    TMP DP  RH WIND       PRES   REMARKS
WINNER         FAIR      46  28  49 SW13      29.78S
VALENTINE      CLEAR     36  23  59 CALM      29.83F
THEDFORD       CLEAR     40  22  49 SW7       29.90S WCI  35
AINSWORTH      CLEAR     42  25  50 SW13      29.84F
O`NEILL        CLEAR     41  28  60 SW13      29.88S
ORD            CLEAR     34  28  79 SE3       29.93S
BROKEN BOW     CLEAR     42  22  44 CALM      29.94R
VALENTINE NWR    N/A     44  21  40 SW12        N/A
BUTTE            N/A     41  27  56 SW6         N/A
HALSEY           N/A     45  19  34 SW6         N/A
CHAMBERS         N/A     43  26  51 SW8         N/A
EWING            N/A     38  32  79 S5          N/A  WCI  34
$$

...OBSERVATIONS IN SOUTHWEST NEBRASKA AND FAR NORTHEAST COLORADO...

CITY           SKY/WX    TMP DP  RH WIND       PRES   REMARKS
HOLYOKE        FAIR      37  21  52 NW7       30.00R WCI  32
IMPERIAL       CLEAR     35  18  49 SW10      29.98R WCI  27
OGALLALA       CLEAR     30  23  73 W9        29.95S WCI  22
NORTH PLATTE   CLOUDY    28  22  78 CALM      29.96F
MCCOOK         CLOUDY    29  22  75 SW7       30.00R WCI  22
LEXINGTON      CLOUDY    39  22  51 W3        29.98R
STAPLETON        N/A     39  22  51 CALM        N/A
GOTHENBURG       N/A     35  21  57 CALM        N/A
CALLAWAY         N/A     43  23  45 W20         N/A
$$

...OBSERVATIONS IN CENTRAL LINCOLN COUNTY AREA...

CITY           SKY/WX    TMP DP  RH WIND       PRES   REMARKS
N.P. AIRPORT   CLOUDY    28  22  78 CALM      29.96F
N.P. DOWNTOWN    N/A     35  24  64 CALM        N/A
N.P. SOUTHEAST   N/A     34  21  59 CALM        N/A
N.P. HILLCREST   N/A     37  22  56 S3          N/A
$$

...SOME OBSERVATIONS FROM AROUND THE REGION...

CITY           SKY/WX    TMP DP  RH WIND       PRES   REMARKS
LARAMIE        CLEAR     36  26  67 VRB3      30.06S
CHEYENNE       CLEAR     47  26  44 W30G38    30.02S
DENVER         CLOUDY    39  19  44 VRB3      30.05R
AKRON          CLOUDY    43  17  35 W14       30.02R
SCOTTSBLUFF    CLOUDY    32  22  66 N7        29.92S WCI  26
RAPID CITY     CLEAR     44  30  57 NE3       29.75S
BISMARCK       PTCLDY    31  27  85 CALM      29.69R
PIERRE         CLEAR     36  29  75 VRB3      29.74S
SIOUX FALLS    PTCLDY    44  35  70 S16       29.83F
OMAHA          PTCLDY    34  31  88 S7        30.01R WCI  28
GRAND ISLAND   CLEAR     43  34  70 SW10      29.98S
KANSAS CITY    PTCLDY    44  42  93 N8        29.98R
WICHITA        PTCLDY    43  38  82 NW9       30.02R
OKLAHOMA CITY  CLEAR     47  42  83 NW10      30.00R
DALLAS         MOSUNNY   53  47  79 NW13      29.94R
AMARILLO       CLOUDY    34  22  61 SW7       30.10F WCI  28
DODGE CITY     CLOUDY    37  21  52 SW9       30.08R WCI  30
HAYS           CLOUDY    32  26  78 S3        30.05R
GOODLAND       CLOUDY    37  15  40 SW9       30.01R WCI  30
$$




USA.gov is the U.S. government's official web portal to all federal, state and local government web resources and services.